Simultaneous Nadir Overpasses (SNOs) Predictions

Prediction of SNOs between METOP-C and LANDSAT-8 Satellite Orbit:

Table of predicted SNOs for the next 14.0 days since TLE Epoch: 3/25/2023
Index Date (METOP-C) Time (METOP-C) Lat,Lon (METOP-C) SZA (METOP-C ) Date (LANDSAT-8) Time (LANDSAT-8) Lat,Lon (LANDSAT-8) SZA (LANDSAT-8 ) Distance(km) Time Diff (sec)
1 03/27/2023 19:21:14 -81.11, 108.85 99.77 03/27/2023 19:21:59 -81.11, 108.77 99.76 1.27 45
2 03/27/2023 20:11:53 81.13, -83.38 80.28 03/27/2023 20:11:25 81.12, -83.51 80.25 2.41 28
3 03/30/2023 14:55:38 -81.12, 175.48 100.81 03/30/2023 14:56:12 -81.12, 175.30 100.82 2.97 34
4 03/30/2023 15:46:18 81.12, -17.10 79.19 03/30/2023 15:45:38 81.12, -17.01 79.18 1.49 40
5 04/02/2023 10:30:02 -81.12,-118.05 101.86 04/02/2023 10:30:24 -81.12,-118.22 101.87 2.99 22
6 04/02/2023 11:20:42 81.13, 49.41 78.14 04/02/2023 11:19:50 81.12, 49.43 78.12 0.63 52
7 04/05/2023 06:04:25 -81.12, -51.72 102.93 04/05/2023 06:04:34 -81.12, -51.80 102.93 1.31 9
8 04/05/2023 06:55:04 81.14, 116.15 77.13 04/05/2023 06:53:59 81.14, 116.20 77.12 0.96 65
9 04/08/2023 00:48:09 81.10,-153.28 75.97 04/08/2023 00:49:18 81.09,-153.44 75.98 2.84 69



Historial Predications of SNOs between METOP-C and LANDSAT-8
